Skip Page Navigation
NASA JPL Caltech
NASA Logo - Jet Propulsion Laboratory + View the NASA Portal
+ Center for Near-Earth Object Studies
JPL Home Earth Solar System Stars & Galaxies Technology
JPL Solar System Dynamics
BODIES ORBITS EPHEMERIDES TOOLS PHYSICAL DATA DISCOVERY FAQ SITE MAP
IMPORTANT: The SSD Announcement email list is now available. Major changes are coming in the near future, including possible hostname and/or URL changes. To be notified of such changes, subscribe to this email list.

Please visit this page for more details.


JPL Small-Body Database Browser
Search: [ help ]  
193150 (2000 JU8)
Classification: Main-belt Asteroid          SPK-ID: 2193150
Ephemeris | Orbit Diagram | Orbital Elements | Mission Design | Physical Parameters | Discovery Circumstances | Close-Approach Data ]

[ show orbit diagram ]
Orbital Elements at Epoch 2458600.5 (2019-Apr-27.0) TDB
Reference: JPL 13 (heliocentric ecliptic J2000)
 Element Value Uncertainty (1-sigma)   Units 
e .2144913556854156 6.5634e-08  
a 2.355920630161112 1.3374e-08 au
q 1.850596020310617 1.5178e-07 au
i 1.432960428879198 6.8323e-06 deg
node 314.488723022465 0.00028762 deg
peri 347.1927255829894 0.00028846 deg
M 39.07455638820431 2.3819e-05 deg
tp 2458457.139018693032
(2018-Dec-04.63901869)
8.6799e-05 TDB
period 1320.807145134685
3.62
1.1247e-05
3.079e-08
d
yr
n .2725606091139749 2.3209e-09 deg/d
Q 2.861245240011607 1.6243e-08 au
  Orbit Determination Parameters
   # obs. used (total)      305  
   data-arc span      6584 days (18.03 yr)  
   first obs. used      2000-05-07  
   last obs. used      2018-05-17  
   planetary ephem.      DE431  
   SB-pert. ephem.      SB431-N16  
   condition code      0  
   norm. resid. RMS      .65467  
   source      ORB  
   producer      Otto Matic  
   solution date      2018-May-31 16:37:46  

Additional Information
 Earth MOID = .834411 au 
 Jupiter MOID = 2.37006 au 
 T_jup = 3.523 
[ show covariance matrix ]

Ephemeris | Orbit Diagram | Orbital Elements | Mission Design | Physical Parameters | Discovery Circumstances | Close-Approach Data ]

Physical Parameter Table
Parameter Symbol Value Units Sigma Reference Notes
absolute magnitude H 17.0   n/a MPO433275  

193150 (2000 JU8)          Discovered 2000-May-07 by Comba, P. G. at Prescott
Reference: 20081113/Numbers.arcLast Updated: 2008-11-17

[ show close-approach data ]
Alternate Designations
 2000 JU8 = 2004 PJ8 
Ephemeris | Orbit Diagram | Orbital Elements | Mission Design | Physical Parameters | Discovery Circumstances | Close-Approach Data ]
ABOUT SSD CREDITS/AWARDS PRIVACY/COPYRIGHT GLOSSARY LINKS
FirstGov
(server date/time)  
NASA Home Page
Site Manager:   Ryan S. Park
Webmaster  Alan B. Chamberlin